Skip Page Navigation
NASA JPL Caltech
NASA Logo - Jet Propulsion Laboratory + View the NASA Portal
+ Center for Near-Earth Object Studies
JPL Home Earth Solar System Stars & Galaxies Technology
JPL Solar System Dynamics
BODIES ORBITS EPHEMERIDES TOOLS PHYSICAL DATA DISCOVERY FAQ SITE MAP
IMPORTANT: The SSD Announcement email list is now available. Major changes are coming in the near future, including possible hostname and/or URL changes. To be notified of such changes, subscribe to this email list.

Please visit this page for more details.


JPL Small-Body Database Browser
Search: [ help ]  
447493 (2006 RG71)
Classification: Main-belt Asteroid          SPK-ID: 2447493
Ephemeris | Orbit Diagram | Orbital Elements | Mission Design | Physical Parameters | Discovery Circumstances ]

[ show orbit diagram ]
Orbital Elements at Epoch 2458600.5 (2019-Apr-27.0) TDB
Reference: JPL 10 (heliocentric ecliptic J2000)
 Element Value Uncertainty (1-sigma)   Units 
e .05976432385236131 7.4131e-08  
a 2.757593258928477 4.485e-08 au
q 2.592787562348787 2.0083e-07 au
i 11.36926365883684 9.827e-06 deg
node 359.9615110424958 3.8524e-05 deg
peri 230.2113725055991 9.3802e-05 deg
M 39.32871065247857 8.2163e-05 deg
tp 2458417.773747261909
(2018-Oct-26.27374726)
0.00038257 TDB
period 1672.606345195986
4.58
4.0805e-05
1.117e-07
d
yr
n .2152329512763013 5.2508e-09 deg/d
Q 2.922398955508167 4.753e-08 au
  Orbit Determination Parameters
   # obs. used (total)      90  
   data-arc span      5615 days (15.37 yr)  
   first obs. used      2004-02-16  
   last obs. used      2019-07-02  
   planetary ephem.      DE431  
   SB-pert. ephem.      SB431-N16  
   condition code      0  
   norm. resid. RMS      .652  
   source      ORB  
   producer      Otto Matic  
   solution date      2019-Sep-24 07:49:12  

Additional Information
 Earth MOID = 1.60075 au 
 Jupiter MOID = 2.08595 au 
 T_jup = 3.312 
[ hide covariance matrix ]
Orbital Elements at Epoch 2457139.5 (2015-Apr-27.0) TDB
Reference: JPL 10 (heliocentric ecliptic J2000)
 Element Value Uncertainty (1-sigma)   Units 
e .05855137529146578 7.3932e-08  
q 2.595694411238362 1.9978e-07 au
tp 2456749.008226841638
(2014-Apr-01.50822684)
0.00040241 TDB
node .0267011971678554 3.8478e-05 deg
peri 230.8666391103208 9.566e-05 deg
i 11.37758267707638 9.8319e-06 deg
  Orbit Determination Parameters
   # obs. used (total)      90  
   data-arc span      5615 days (15.37 yr)  
   first obs. used      2004-02-16  
   last obs. used      2019-07-02  
   planetary ephem.      DE431  
   SB-pert. ephem.      SB431-N16  
   condition code      0  
   norm. resid. RMS      .652  
   source      ORB  
   producer      Otto Matic  
   solution date      2019-Sep-24 07:49:12  

Additional Information
 Jupiter MOID = 2.08595 au 
 T_jup = 3.312 
Orbit Covariance (6×6)
  e q tp node peri i
e 5.465901737935771E-15 -1.445265322098755E-14 -9.159659397277638E-12 1.301290026651076E-14 -2.100534675941445E-12 -1.777774717986698E-14
q -1.445265322098755E-14 3.991205060459941E-14 2.011952674191182E-11 -4.907257366269977E-14 4.744330228797457E-12 5.17168913577957E-14
tp -9.159659397277638E-12 2.011952674191182E-11 1.619372787716421E-7 8.848658552486668E-11 3.528460703341604E-8 -9.9765753169538E-12
node 1.301290026651076E-14 -4.907257366269977E-14 8.848658552486668E-11 1.480527104388708E-9 -1.431721580181735E-9 -4.901190824781195E-11
peri -2.100534675941445E-12 4.744330228797457E-12 3.528460703341604E-8 -1.431721580181735E-9 9.150815441349825E-9 4.632971580558936E-11
i -1.777774717986698E-14 5.17168913577957E-14 -9.9765753169538E-12 -4.901190824781195E-11 4.632971580558936E-11 9.666647486119921E-11

Ephemeris | Orbit Diagram | Orbital Elements | Mission Design | Physical Parameters | Discovery Circumstances ]

Physical Parameter Table
Parameter Symbol Value Units Sigma Reference Notes
absolute magnitude H 16.4   n/a MPO434663  

447493 (2006 RG71)          Discovered 2006-Sep-15 by Spacewatch at Kitt Peak
Reference: Last Updated: 2015-10-28

Alternate Designations
 2006 RG71 = 2013 CF124 = 2015 RH137 
Ephemeris | Orbit Diagram | Orbital Elements | Mission Design | Physical Parameters | Discovery Circumstances ]
ABOUT SSD CREDITS/AWARDS PRIVACY/COPYRIGHT GLOSSARY LINKS
FirstGov 2019-Dec-07 20:12 UT
(server date/time)  
NASA Home Page
Site Manager:   Ryan S. Park
Webmaster  Alan B. Chamberlin